TimeEST,TemperatureF,Dew PointF,Humidity,Sea Level PressureIn,VisibilityMPH,Wind Direction,Wind SpeedMPH,Gust SpeedMPH,PrecipitationIn,Events,Conditions,WindDirDegrees,DateUTC
12:54 AM,39.0,30.9,73,30.07,10.0,Variable,3.5,-,N/A,,Clear,0,2013-02-15 05:54:00
1:54 AM,37.9,30.9,76,30.06,10.0,Calm,Calm,-,N/A,,Clear,0,2013-02-15 06:54:00
2:54 AM,36.0,30.0,79,30.06,10.0,Calm,Calm,-,N/A,,Clear,0,2013-02-15 07:54:00
3:54 AM,36.0,30.9,82,30.05,10.0,Calm,Calm,-,N/A,,Clear,0,2013-02-15 08:54:00
4:54 AM,34.0,30.0,85,30.06,10.0,Calm,Calm,-,N/A,,Clear,0,2013-02-15 09:54:00
5:54 AM,30.9,28.9,92,30.06,8.0,Calm,Calm,-,N/A,,Clear,0,2013-02-15 10:54:00
6:54 AM,30.0,27.0,88,30.07,8.0,Calm,Calm,-,N/A,,Clear,0,2013-02-15 11:54:00
7:54 AM,34.0,30.0,85,30.09,8.0,Calm,Calm,-,N/A,,Clear,0,2013-02-15 12:54:00
8:54 AM,42.1,34.0,73,30.10,9.0,Calm,Calm,-,N/A,,Clear,0,2013-02-15 13:54:00
9:54 AM,46.9,32.0,56,30.09,10.0,Calm,Calm,-,N/A,,Clear,0,2013-02-15 14:54:00
10:54 AM,52.0,32.0,47,30.08,10.0,West,4.6,-,N/A,,Clear,270,2013-02-15 15:54:00
11:54 AM,55.0,32.0,42,30.05,10.0,South,8.1,-,N/A,,Clear,190,2013-02-15 16:54:00
12:54 PM,55.9,28.9,36,30.02,10.0,SW,8.1,-,N/A,,Clear,230,2013-02-15 17:54:00
1:54 PM,57.9,26.1,30,29.99,10.0,Variable,6.9,-,N/A,,Partly Cloudy,0,2013-02-15 18:54:00
2:54 PM,57.9,25.0,28,29.96,10.0,West,8.1,-,N/A,,Partly Cloudy,260,2013-02-15 19:54:00
3:54 PM,59.0,27.0,29,29.94,10.0,Variable,5.8,-,N/A,,Clear,0,2013-02-15 20:54:00
4:54 PM,57.9,26.1,30,29.93,10.0,South,9.2,-,N/A,,Clear,190,2013-02-15 21:54:00
5:54 PM,57.0,26.1,30,29.93,10.0,SW,4.6,-,N/A,,Mostly Cloudy,220,2013-02-15 22:54:00
6:54 PM,55.9,27.0,33,29.94,10.0,SW,4.6,-,N/A,,Overcast,220,2013-02-15 23:54:00
7:54 PM,55.0,28.0,35,29.95,10.0,West,5.8,-,N/A,,Overcast,270,2013-02-16 00:54:00
8:54 PM,48.9,39.0,69,29.97,10.0,NNW,15.0,25.3,0.00,Rain,Light Rain,340,2013-02-16 01:54:00
9:54 PM,44.1,33.1,65,29.99,10.0,NNW,13.8,19.6,0.00,,Mostly Cloudy,340,2013-02-16 02:54:00
10:54 PM,43.0,30.9,62,30.00,10.0,NNW,8.1,-,N/A,,Mostly Cloudy,340,2013-02-16 03:54:00
11:54 PM,42.1,30.9,65,29.98,10.0,North,6.9,-,N/A,,Overcast,360,2013-02-16 04:54:00